| time (UTC) | temp F | wind direction | speed MPH | gust MPH | rain 1hr in | rain 24hr in | rain mn in | humidity % | barometer mb |
| 20260504110316 | 46 | 337 | 0.0 | 0.0 | 0.00 | 0.30 | 0.00 | 82 | 1073.6 |
| 20260504100415 | 45 | 202 | 0.0 | 0.0 | 0.00 | 0.30 | 0.00 | 78 | 1073.9 |
| 20260504080316 | 49 | 218 | 0.0 | 3.0 | 0.00 | 0.30 | 0.00 | 67 | 1074.7 |
| 20260504050516 | 49 | 294 | 0.0 | 1.0 | 0.00 | 0.30 | 0.00 | 64 | 1076.5 |
| 20260504045615 | 49 | 315 | 0.0 | 0.0 | 0.00 | 0.30 | 0.00 | 63 | 1076.6 |
| 20260504043617 | 50 | 202 | 0.0 | 0.0 | 0.00 | 0.30 | 0.00 | 61 | 1076.6 |
| 20260504043515 | 50 | 202 | 0.0 | 0.0 | 0.00 | 0.30 | 0.00 | 60 | 1076.6 |
| 20260504042517 | 51 | 225 | 0.0 | 0.0 | 0.00 | 0.30 | 0.00 | 58 | 1076.7 |
| 20260504041517 | 52 | 3 | 0.0 | 0.0 | 0.00 | 0.30 | 0.00 | 57 | 1076.8 |
| 20260504035517 | 53 | 225 | 0.0 | 1.0 | 0.00 | 0.30 | 0.30 | 56 | 1077.1 |
| 20260504034533 | 54 | 313 | 0.0 | 1.0 | 0.00 | 0.30 | 0.30 | 54 | 1077.2 |
| 20260504032516 | 54 | 180 | 0.0 | 0.0 | 0.00 | 0.31 | 0.30 | 54 | 1077.3 |
| 20260504032416 | 54 | 167 | 0.0 | 0.0 | 0.00 | 0.31 | 0.30 | 55 | 1077.3 |
| 20260504030514 | 54 | 225 | 0.0 | 0.0 | 0.00 | 0.31 | 0.30 | 53 | 1077.4 |
| 20260504025532 | 54 | 263 | 0.0 | 1.0 | 0.00 | 0.31 | 0.30 | 52 | 1077.5 |
| 20260504024516 | 54 | 202 | 0.0 | 0.0 | 0.00 | 0.31 | 0.30 | 52 | 1077.7 |
| 20260504023614 | 55 | 202 | 0.0 | 0.0 | 0.00 | 0.31 | 0.30 | 50 | 1077.7 |
| 20260504022714 | 55 | 202 | 0.0 | 0.0 | 0.00 | 0.31 | 0.30 | 48 | 1077.8 |
| 20260504020815 | 55 | 202 | 1.0 | 3.0 | 0.00 | 0.31 | 0.30 | 48 | 1077.8 |
| 20260504020716 | 55 | 180 | 0.0 | 3.0 | 0.00 | 0.31 | 0.30 | 49 | 1077.8 |
| 20260504015716 | 55 | 225 | 0.0 | 0.0 | 0.00 | 0.31 | 0.30 | 49 | 1077.7 |
| 20260504015616 | 55 | 230 | 1.0 | 2.0 | 0.00 | 0.31 | 0.30 | 49 | 1077.6 |
| 20260504014614 | 55 | 225 | 0.0 | 0.0 | 0.00 | 0.31 | 0.30 | 49 | 1077.3 |
| 20260504013614 | 55 | 202 | 0.0 | 1.0 | 0.00 | 0.31 | 0.30 | 48 | 1077.3 |
| 20260504012615 | 55 | 71 | 0.0 | 0.0 | 0.00 | 0.31 | 0.30 | 50 | 1077.2 |
| 20260504012530 | 55 | 67 | 0.0 | 0.0 | 0.00 | 0.31 | 0.30 | 50 | 1077.3 |
| 20260504011614 | 55 | 218 | 0.0 | 0.0 | 0.00 | 0.31 | 0.30 | 49 | 1077.2 |
| 20260504005616 | 55 | 202 | 0.0 | 0.0 | 0.00 | 0.31 | 0.30 | 48 | 1077.4 |
| 20260504004615 | 56 | 180 | 0.0 | 0.0 | 0.00 | 0.31 | 0.30 | 47 | 1077.3 |
| 20260504003630 | 56 | 202 | 0.0 | 0.0 | 0.00 | 0.31 | 0.30 | 44 | 1077.2 |
| 20260504002716 | 57 | 214 | 0.0 | 0.0 | 0.00 | 0.31 | 0.30 | 44 | 1077.3 |
| 20260504001716 | 57 | 202 | 0.0 | 1.0 | 0.00 | 0.31 | 0.30 | 44 | 1077.2 |
| 20260504000716 | 57 | 180 | 0.0 | 0.0 | 0.00 | 0.31 | 0.30 | 42 | 1077.1 |
| 20260504000633 | 57 | 180 | 0.0 | 0.0 | 0.00 | 0.31 | 0.30 | 42 | 1077.0 |
| 20260503235715 | 57 | 246 | 0.0 | 2.0 | 0.00 | 0.31 | 0.30 | 42 | 1077.1 |
| 20260503234716 | 58 | 293 | 0.0 | 1.0 | 0.00 | 0.31 | 0.30 | 42 | 1076.9 |
| 20260503234616 | 58 | 288 | 0.0 | 0.0 | 0.00 | 0.31 | 0.30 | 43 | 1076.9 |
| 20260503233715 | 58 | 270 | 0.0 | 2.0 | 0.00 | 0.31 | 0.30 | 42 | 1077.1 |
| 20260503232716 | 58 | 232 | 0.0 | 2.0 | 0.00 | 0.31 | 0.30 | 41 | 1077.2 |
| 20260503231716 | 59 | 226 | 2.0 | 3.0 | 0.00 | 0.31 | 0.30 | 39 | 1077.5 |
| 20260503230716 | 59 | 248 | 0.0 | 2.0 | 0.00 | 0.31 | 0.30 | 40 | 1077.9 |
| 20260503224815 | 60 | 202 | 0.0 | 2.0 | 0.00 | 0.31 | 0.30 | 39 | 1078.1 |
| 20260503223814 | 60 | 214 | 0.0 | 1.0 | 0.00 | 0.31 | 0.30 | 38 | 1078.3 |
| 20260503223716 | 60 | 225 | 0.0 | 0.0 | 0.00 | 0.31 | 0.30 | 38 | 1078.3 |
| 20260503222715 | 61 | 217 | 2.0 | 4.0 | 0.00 | 0.31 | 0.30 | 39 | 1078.6 |
| 20260503220730 | 60 | 196 | 2.0 | 4.0 | 0.00 | 0.31 | 0.30 | 40 | 1078.7 |
| 20260503215731 | 59 | 242 | 1.0 | 3.0 | 0.00 | 0.31 | 0.30 | 40 | 1078.8 |
| 20260503214731 | 59 | 59 | 0.0 | 0.0 | 0.00 | 0.31 | 0.30 | 39 | 1078.8 |
| 20260503212733 | 59 | 247 | 0.0 | 0.0 | 0.00 | 0.31 | 0.30 | 41 | 1078.9 |
| 20260503211714 | 58 | 168 | 0.0 | 4.0 | 0.00 | 0.31 | 0.30 | 42 | 1079.1 |
| 20260503210616 | 58 | 220 | 1.0 | 3.0 | 0.00 | 0.32 | 0.30 | 42 | 1079.5 |
| 20260503205630 | 58 | 223 | 0.0 | 1.0 | 0.00 | 0.32 | 0.30 | 42 | 1080.1 |
| 20260503205515 | 58 | 225 | 0.0 | 0.0 | 0.00 | 0.32 | 0.30 | 42 | 1080.1 |
| 20260503204514 | 58 | 275 | 1.0 | 4.0 | 0.00 | 0.32 | 0.30 | 40 | 1080.2 |
| 20260503203614 | 59 | 341 | 0.0 | 1.0 | 0.00 | 0.32 | 0.30 | 38 | 1080.0 |
| 20260503202617 | 60 | 258 | 1.0 | 5.0 | 0.00 | 0.32 | 0.30 | 37 | 1079.9 |
| 20260503202531 | 60 | 292 | 0.0 | 1.0 | 0.00 | 0.32 | 0.30 | 37 | 1080.0 |
| 20260503200616 | 62 | 252 | 2.0 | 3.0 | 0.00 | 0.32 | 0.30 | 38 | 1079.7 |
| 20260503195714 | 62 | 339 | 0.0 | 4.0 | 0.00 | 0.32 | 0.30 | 36 | 1079.8 |
| 20260503194715 | 62 | 230 | 2.0 | 5.0 | 0.00 | 0.32 | 0.30 | 35 | 1080.1 |
| 20260503192814 | 63 | 250 | 2.0 | 4.0 | 0.00 | 0.32 | 0.30 | 37 | 1080.5 |
| 20260503192731 | 63 | 231 | 5.0 | 9.0 | 0.00 | 0.32 | 0.30 | 37 | 1080.7 |
| 20260503191729 | 63 | 232 | 3.0 | 5.0 | 0.00 | 0.32 | 0.30 | 38 | 1080.8 |
| 20260503190814 | 62 | 245 | 3.0 | 11.0 | 0.00 | 0.32 | 0.30 | 37 | 1081.1 |
| 20260503185832 | 61 | 205 | 5.0 | 9.0 | 0.00 | 0.32 | 0.30 | 37 | 1081.1 |
| 20260503184818 | 61 | 216 | 1.0 | 3.0 | 0.00 | 0.32 | 0.30 | 37 | 1081.2 |
| 20260503183231 | 62 | 244 | 5.0 | 10.0 | 0.00 | 0.32 | 0.30 | 37 | 1081.5 |
| 20260503182233 | 62 | 190 | 5.0 | 14.0 | 0.00 | 0.32 | 0.30 | 37 | 1081.5 |
| 20260503181330 | 61 | 314 | 4.0 | 9.0 | 0.00 | 0.32 | 0.30 | 37 | 1081.7 |
| 20260503180332 | 62 | 309 | 2.0 | 5.0 | 0.00 | 0.32 | 0.30 | 38 | 1081.8 |
| 20260503175333 | 61 | 337 | 2.0 | 4.0 | 0.00 | 0.32 | 0.30 | 39 | 1081.8 |
| 20260503174330 | 60 | 224 | 3.0 | 6.0 | 0.00 | 0.32 | 0.30 | 36 | 1082.1 |
| 20260503173232 | 61 | 296 | 3.0 | 5.0 | 0.00 | 0.32 | 0.30 | 38 | 1082.3 |
| 20260503172232 | 61 | 280 | 2.0 | 5.0 | 0.00 | 0.32 | 0.30 | 40 | 1082.5 |
| 20260503172131 | 61 | 279 | 1.0 | 3.0 | 0.00 | 0.32 | 0.30 | 39 | 1082.5 |
| 20260503171130 | 60 | 319 | 1.0 | 3.0 | 0.00 | 0.32 | 0.30 | 39 | 1082.5 |
| 20260503170133 | 60 | 206 | 4.0 | 7.0 | 0.00 | 0.33 | 0.30 | 39 | 1082.9 |
| 20260503150230 | 57 | 299 | 1.0 | 3.0 | 0.02 | 0.33 | 0.30 | 46 | 1084.1 |
| 20260503140131 | 53 | 29 | 0.0 | 3.0 | 0.23 | 0.31 | 0.27 | 61 | 1084.2 |
| 20260503131129 | 45 | 128 | 0.0 | 2.0 | 0.13 | 0.17 | 0.12 | 90 | 1084.4 |
| 20260503130129 | 43 | 266 | 0.0 | 0.0 | 0.05 | 0.09 | 0.04 | 92 | 1084.3 |